Weather History for Hayward, WI

Change the Weather History Date:

Saturday, February 2, 2013

  Actual Average Record
Temperature  
Mean Temperature -2 °F -  
Max Temperature 9 °F 30 °F 41 °F (2005)
Min Temperature -14 °F -2 °F -32 °F (1949)
Degree Days  
Heating Degree Days 68    
Moisture  
Dew Point -8 °F    
Average Humidity 66    
Maximum Humidity 83    
Minimum Humidity 48    
Precipitation  
Precipitation 0.00 in - - ()
Sea Level Pressure  
Sea Level Pressure 30.13 in    
Wind  
Wind Speed 1 mph (WSW)    
Max Wind Speed 5 mph    
Max Gust Speed -    
Visibility 9 miles    
Events Snow    
Averages and records for this station are not official NWS values.
T = Trace of Precipitation, MM = Missing Value Source: NWS Daily Summary

Daily Weather History Graph

Daily Weather History Graph

Search for Another Location

Airport:

Trip Planner

Search our weather history database for the weather conditions in past years. The results will help you decide how hot, cold, wet, or windy it might be!

Date:

Astronomy

Feb. 02, 2013 Rise Set
Actual Time 7:26 AM CST 5:13 PM CST
Civil Twilight 6:54 AM CST 5:44 PM CST
Nautical Twilight 6:19 AM CST 6:20 PM CST
Astronomical Twilight 5:44 AM CST 6:55 PM CST
Moon No Moon Rise 10:11 AM CST (2/2)
Length of Visible Light 10h 50m
Length of Day
9h 46m
Waning Gibbous, 59% of the Moon is Illuminated
Feb 2
Waning Gibbous
Feb 3
Last Quarter
Feb 10
New
Feb 17
First Quarter
Feb 25
Full

Hourly Weather History & Observations

Time (CST) Temp. Windchill Dew Point Humidity Pressure Visibility Wind Dir Wind Speed Gust Speed Precip Events Conditions
12:53 AM -2.0 °F - -9.0 °F 72% 30.16 in 9.0 mi Calm Calm - 0.00 in   Overcast
1:53 AM -2.0 °F - -9.9 °F 69% 30.17 in 7.0 mi Calm Calm - 0.00 in Snow Light Snow
3:53 AM -2.9 °F - -9.0 °F 75% 30.17 in 10.0 mi Calm Calm - N/A   Overcast
4:53 AM -2.9 °F - -9.0 °F 75% 30.19 in 10.0 mi Calm Calm - N/A   Overcast
6:53 AM -11.0 °F - -17.0 °F 75% 30.22 in 10.0 mi Calm Calm - N/A   Clear
7:53 AM -14.1 °F - -20.9 °F 71% 30.22 in 10.0 mi Calm Calm - N/A   Clear
8:53 AM -9.0 °F - -13.0 °F 83% 30.22 in 10.0 mi Calm Calm - N/A   Clear
9:53 AM -2.0 °F - -8.0 °F 76% 30.22 in 10.0 mi Calm Calm - N/A   Clear
10:53 AM 1.9 °F - -7.1 °F 66% 30.21 in 10.0 mi Calm Calm - N/A   Clear
11:53 AM 6.1 °F -0.9 °F -6.0 °F 58% 30.18 in 10.0 mi WNW 3.5 mph - N/A   Clear
12:53 PM 8.1 °F -0.5 °F -6.0 °F 53% 30.15 in 10.0 mi Variable 4.6 mph - N/A   Clear
1:53 PM 9.0 °F - -6.0 °F 51% 30.12 in 10.0 mi Calm Calm - N/A   Clear
2:53 PM 9.0 °F 0.6 °F -7.1 °F 48% 30.11 in 10.0 mi West 4.6 mph - N/A   Clear
3:53 PM 9.0 °F 0.6 °F -6.0 °F 51% 30.10 in 10.0 mi Variable 4.6 mph - N/A   Scattered Clouds
4:53 PM 7.0 °F 0.1 °F -7.1 °F 53% 30.10 in 10.0 mi WSW 3.5 mph - N/A   Clear
5:53 PM 3.0 °F - -7.1 °F 63% 30.09 in 10.0 mi Calm Calm - N/A   Mostly Cloudy
6:53 PM 1.0 °F -6.7 °F -7.1 °F 69% 30.09 in 10.0 mi SSW 3.5 mph - N/A   Mostly Cloudy
7:53 PM 3.9 °F - -6.0 °F 64% 30.08 in 10.0 mi Calm Calm - N/A   Overcast
8:53 PM 3.9 °F - -5.1 °F 66% 30.05 in 10.0 mi Calm Calm - 0.00 in   Overcast
9:53 PM 3.9 °F - -2.9 °F 73% 30.04 in 4.0 mi Calm Calm - 0.00 in Snow Light Snow
10:53 PM 3.9 °F -3.4 °F -2.0 °F 76% 30.02 in 5.0 mi SSW 3.5 mph - 0.00 in Snow Light Snow
11:53 PM 3.9 °F - -2.0 °F 76% 30.01 in 4.0 mi Calm Calm - 0.00 in Snow Light Snow